{"data":{"norad_id":62108,"epoch":"2026-05-25T00:15:11.024928Z","epoch_age_seconds":74372,"freshness":"FRESH","line1":"1 62108U 24220W   26145.01054427  .00014436  00000+0  53283-3 0  9999","line2":"2 62108  42.9999 134.5109 0000850 272.0381  88.0373 15.27596375 84865","mean_motion":15.27596375,"eccentricity":8.5e-5,"inclination_deg":42.9999,"raan_deg":134.5109,"arg_perigee_deg":272.0381,"mean_anomaly_deg":88.0373,"bstar":0.00053283,"rev_number":8486,"period_min":94.265738225518,"perigee_km":482.41686718635,"apogee_km":483.58326048721,"semimajor_km":6861.1370638368,"source":"CELESTRAK","updated_at":"2026-05-25T13:38:19.561115Z"}}